Regional Weather Roundup
Issued by NWS

Home | Current Version | Previous Version | Text Only | Print | Product List | Glossary Off
Versions: 1 2 3 4 5 6 7 8 9 10 11 12 13 14 15 16 17 18 19 20 21 22 23 24 25 26 27 28 29 30 31 32 33 34 35 36 37 38 39 40 41 42 43 44 45 46 47 48 49 50

000
ASUS43 KLMK 250610
RWRKY
KENTUCKY REGIONAL WEATHER ROUNDUP
NATIONAL WEATHER SERVICE LOUISVILLE KY
200 AM EDT MON SEP 25 2017

NOTE "FAIR" INDICATES FEW OR NO CLOUDS BELOW 12,000 FEET
WITH NO SIGNIFICANT WEATHER AND/OR OBSTRUCTIONS TO VISIBILITY.

KYZ001>023-026-027-061>063-070>075-250700-
WESTERN AND SOUTH CENTRAL KENTUCKY

CITY           SKY/WX    TMP DP  RH WIND       PRES   REMARKS
PADUCAH        CLEAR     67  63  87 CALM      29.98S
HENDERSON      CLOUDY    68  66  93 CALM      29.99F
OWENSBORO      PTCLDY    72  67  84 CALM      30.00
HOPKINSVILLE   CLOUDY    71  69  94 CALM      29.99S
BOWLING GREEN  CLEAR     70  69  97 CALM      30.01S
GLASGOW        CLEAR    N/A N/A N/A CALM      30.02S FOG
$$

KYZ024-025-028>034-038-045-046-053-250700-
NORTH CENTRAL KENTUCKY

CITY           SKY/WX    TMP DP  RH WIND       PRES   REMARKS
LOUISVILLE/SDF MOCLDY    75  62  64 CALM      30.01F
LOUISVILLE/LOU PTCLDY    67  64  90 CALM      30.02F
FORT KNOX      CLEAR     65  63  94 E3        30.01S
$$

KYZ035>037-039>044-047>052-055>060-089>105-250700-
NORTHEAST KENTUCKY

CITY           SKY/WX    TMP DP  RH WIND       PRES   REMARKS
LEXINGTON      CLEAR     66  60  81 CALM      30.05S
COVINGTON      PTCLDY    65  58  78 W5        30.05S
FRANKFORT      CLEAR     65  60  84 CALM      30.03F
$$

KYZ054-064>069-076>088-106>120-250700-
SOUTHEAST KENTUCKY

CITY           SKY/WX    TMP DP  RH WIND       PRES   REMARKS
JACKSON        PTCLDY    68  60  75 CALM      30.06F
LONDON         CLEAR     66  63  90 CALM      30.05F
SOMERSET       CLEAR     63  63 100 CALM      30.05S
MIDDLESBORO    CLEAR     62  62 100 CALM      30.07S
MONTICELLO     CLEAR     62  62 100 CALM      30.06S FOG
$$





USA.gov is the U.S. government's official web portal to all federal, state and local government web resources and services.